Regional Weather Roundup
Issued by NWS Glasgow, MT

Home | Current Version | Previous Version | Text Only | Print | Product List | Glossary On
Versions: 1 2 3 4 5 6 7 8 9 10 11 12 13 14 15 16 17 18 19 20 21 22 23 24 25 26 27 28 29 30 31 32 33 34 35 36 37 38 39 40 41 42 43 44 45 46 47 48 49 50
000
ASUS45 KGGW 011615
RWRGGW
HOURLY WEATHER ROUNDUP FOR NORTHEAST MONTANA
NATIONAL WEATHER SERVICE GLASGOW MONTANA
900 AM MST SUN MAR 01 2015

NOTE: "FAIR" INDICATES FEW OR NO CLOUDS BELOW 12,000 FEET WITH NO
SIGNIFICANT WEATHER AND/OR OBSTRUCTIONS TO VISISBILITY.

NORTHEAST MONTANA


CITY           SKY/WX    TMP DP  RH WIND       PRES   REMARKS
GLASGOW        PTSUNNY   18  12  77 NW8       30.30R
PLENTYWOOD       N/A     15  13  91 NW6         N/A
WOLF POINT     CLOUDY    20  12  71 NW12      30.31R
JORDAN           N/A     20  13  74 NW17      30.29R
WINNETT          N/A     21  13  71 W9G20       N/A
SIDNEY         MOSUNNY   19  12  73 NW15      30.30R
GLENDIVE       MOSUNNY   21  14  73 NW15      30.27R
MALTA            N/A     17  13  84 SW9         N/A
SCOBEY           N/A     16   4  59 W12       30.22R

FORT PECK REPORTS


CITY           SKY/WX    TMP DP  RH WIND       PRES   REMARKS
FORT PECK        N/A     17  14  88 W12         N/A
THE PINES        N/A     19  13  77 NW8G17      N/A

SOUTHEAST MONTANA


CITY           SKY/WX    TMP DP  RH WIND       PRES   REMARKS
BILLINGS       SUNNY     17   6  62 SW12      30.29R
MILES CITY     CLOUDY    23  14  68 NW17      30.30R
BAKER          LGT SNOW  18  13  80 NW14      30.24R
LIVINGSTON     MOSUNNY   19   5  54 W20       30.24S

CENTRAL MONTANA


CITY           SKY/WX    TMP DP  RH WIND       PRES   REMARKS
HAVRE          MOSUNNY   20  16  84 SW12      30.28S
LEWISTOWN      MOSUNNY   18   9  68 CALM      30.23S
GREAT FALLS    SUNNY     20  10  65 SW14      30.22S
CUT BANK       SUNNY     14   9  80 S3        30.16F
HELENA           N/A     15   5  64 CALM      30.30S
BUTTE          SUNNY      7  -1  70 CALM      30.21R
BOZEMAN        SUNNY     15   4  61 SE5       30.29R

WESTERN MONTANA


CITY           SKY/WX    TMP DP  RH WIND       PRES   REMARKS
MISSOULA       SUNNY     18   8  65 S6        30.32R
KALISPELL      NOT AVBL

NORTH DAKOTA


CITY           SKY/WX    TMP DP  RH WIND       PRES   REMARKS
WILLISTON      PTSUNNY   17  10  74 NW10      30.27R
DICKINSON      MOSUNNY   21  14  74 NW17      30.18R
MINOT          PTSUNNY   12   5  73 W17       30.20R WCI  -5
BISMARCK       MIX PCPN  19  12  74 NW15G26   30.23R

SOUTHERN SASKATCHEWAN


CITY           SKY/WX    TMP DP  RH WIND       PRES   REMARKS
REGINA         MOSUNNY    1   0  92 SW6       30.23R
ESTEVAN        PTSUNNY    3   0  85 NW12      30.23R WCI -13
SWIFT CURRENT  FLURRIES  12  10  92 W10       30.23R WCI  -1



USA.gov is the U.S. government's official web portal to all federal, state and local government web resources and services.